To NAV CANADA Home Page Login to a new session Search on AWWS site Feedback and Comments Disclaimer Vers la page française équivalente Tips FAQ What's new on the site To the Forecasts and Observations / NOTAM section To "File a Flight Plan" website Publications and other links Update of the User's profile FIC Telephone Numbers My Weather Data Folder Route Weather Data Regional Weather Data Local Weather Data To the Forecasts and Observations / NOTAM section
Request Generated 01/21/2017 at 02:07:19 UTC . Weather information available at that time is displayed.

METAR/TAF

SANIKILUAQ/NU    

LWIS CYSK 210200Z AUTO 01011KT M08/M09 A2974=
LWIS CYSK 210100Z AUTO 36014KT M07/M09 A2973=
LWIS CYSK 210000Z AUTO 01014KT M06/M07 A2971=

CYSK - No TAF is issued for this station

Your time UTC time
Weather data provided by Environment Canada and NAV CANADA